Погода в Форт-Маккае

Канада     57°10′47″N   111°38′07″W
темп.,
°C
ветер,
м/с
пор.,
м/с
влажн.,
%
обл.,
%
осадки,
мм/ч
давл.,
гПа
погр.,
м
26 февраля, пт
пт2623:00−24ссв51293100 0.9 1011532
02:00−26ссв41089100 0.0 1015482
05:00−29ссв41090100 0.0 1018412
08:00−31св279596 0.0 1021282
11:00−27св237885 0.0 1022369
14:00−22всв116998 0.0 1022408
17:00−23в117799 0.0 1022287
20:00−24ююв0088100 0.0 102320
27 февраля, сб
сб2723:00−24ююз1287100 0.0 102356
02:00−22ююз2398100 0.1 1022104
05:00−21ююз2398100 0.3 1021104
08:00−21зсз119697 0.1 102126
11:00−19ссв128798 0.1 1020406
14:00−16всв1179100 0.1 1021584
17:00−18св2390100 0.1 1021292
20:00−23ссв2698100 0.0 1023148
28 февраля, вс
вс2823:00−25ссв2499100 0.1 102499
02:00−26ссв269997 0.0 1027223
05:00−30ссв259997 0.1 1029122
08:00−32ссв239855 0.0 102973
11:00−24ю128044 0.0 1028329
14:00−19ююв246837 0.0 1024585
17:00−18юв378168 0.0 1022565
20:00−17ююв31096100 0.3 1018587
1 марта, пн
пн123:00−14ююв41094100 1.1 1014639
02:00−13ю3993100 0.3 1010529
05:00−12ю3894100 0.4 1006332
08:00−10ююз2695100 0.0 1002178
11:00−3ююз2788100 0.0 998355
14:00+4ююз299985 0.0 996930
17:00+1с249292 0.1 996126
20:00−9св3693100 1.3 999256
2 марта, вт
вт223:00−15ссз129385 1.3 100424
02:00−18зсз01943 0.0 100620
05:00−19в119835 0.0 100631
08:00−19св1198100 0.0 100453
11:00−13вюв0184100 0.1 1002286
14:00−7ююз1379100 0.0 1000463
17:00−8всв239287 0.0 99896
20:00−12с119547 0.0 99821